This is the latest recevied weather packets stored in our database for station/object M0UPS-13. If no packets are shown the sender has not sent any weather packets the latest 10 day(s).
| Time | Temp. | Humidity | Pressure | Rain* | Wind** | Luminosity | Snow |
|---|---|---|---|---|---|---|---|
| 1777466102 | 16.67° C | 35% | 1023.8 hPa | 0 mm | - | 474 W/m² | - |
| 1777465802 | 16.67° C | 34% | 1023.8 hPa | 0 mm | - | 484 W/m² | - |
| 1777465502 | 16.67° C | 35% | 1023.5 hPa | 0 mm | - | 518 W/m² | - |
| 1777465202 | 16.67° C | 34% | 1023.7 hPa | 0 mm | - | 631 W/m² | - |
| 1777464902 | 16.67° C | 34% | 1023.8 hPa | 0 mm | - | 499 W/m² | - |
| 1777464603 | 16.67° C | 33% | 1024 hPa | 0 mm | - | 480 W/m² | - |
| 1777464303 | 16.67° C | 33% | 1024 hPa | 0 mm | - | 439 W/m² | - |
| 1777464002 | 17.22° C | 32% | 1024.2 hPa | 0 mm | - | 614 W/m² | - |
| 1777463702 | 17.78° C | 32% | 1024.2 hPa | 0 mm | - | 673 W/m² | - |
| 1777463402 | 17.22° C | 32% | 1024 hPa | 0 mm | - | 740 W/m² | - |
| 1777463102 | 17.78° C | 32% | 1024.3 hPa | 0 mm | - | 725 W/m² | - |
| 1777462802 | 17.22° C | 33% | 1024.3 hPa | 0 mm | - | 718 W/m² | - |
| 1777462502 | 17.78° C | 33% | 1024.4 hPa | 0 mm | - | 717 W/m² | - |
| 1777462202 | 17.22° C | 33% | 1024.5 hPa | 0 mm | - | 709 W/m² | - |
| 1777461902 | 17.22° C | 32% | 1024.5 hPa | 0 mm | - | 707 W/m² | - |
| 1777461602 | 17.22° C | 33% | 1024.4 hPa | 0 mm | - | 702 W/m² | - |
| 1777461302 | 17.22° C | 33% | 1024.4 hPa | 0 mm | - | 699 W/m² | - |
| 1777461002 | 17.22° C | 33% | 1024.2 hPa | 0 mm | - | 693 W/m² | - |
| 1777460703 | 16.67° C | 33% | 1024.4 hPa | 0 mm | - | 689 W/m² | - |
| 1777460402 | 16.67° C | 33% | 1024.4 hPa | 0 mm | - | 685 W/m² | - |
| 1777460102 | 16.67° C | 35% | 1024.4 hPa | 0 mm | - | 678 W/m² | - |
| 1777459802 | 16.67° C | 35% | 1024.5 hPa | 0 mm | - | 692 W/m² | - |
| 1777459502 | 16.67° C | 33% | 1024.4 hPa | 0 mm | - | 667 W/m² | - |
| 1777459202 | 16.67° C | 34% | 1024.4 hPa | 0 mm | - | 660 W/m² | - |
| 1777458902 | 16.67° C | 33% | 1024.4 hPa | 0 mm | - | 656 W/m² | - |
* Rain latest hour (hover to see other rain measurements)
** Current wind speed in m/s (hover to see current wind gust speed)